Flag for Taiwan Weather past 2 weeks in Taipei, Taiwan

Now
88 °F

Scattered showers. Partly sunny.


Feels Like: 100 °F
Forecast: 82 / 90 °F
Wind: 7 mph from Northwest

Location: Sungshan / Taipei

Current Time: Jul 3, 2015 at 7:29:20 PM

Latest Report: Jul 3, 2015 at 6:30 PM


Visibility: N/A

Pressure: 29.62 "Hg

Humidity: 70%

Dew point: 77 °F

Location of TaipeiLocation

Historic Weather in Taipei — Graph

°F

Taipei temperature yesterday

Maximum temperature yesterday: 99 °F (at 1:00 PM)
Minimum temperature yesterday: 82 °F (at 11:30 PM)
Average temperature yesterday: 90 °F

Past Weeks' High & Low Weather Summary

 TemperatureHumidityPressure
High99 °F (Jun 26, 12:30 PM)94% (Jun 21, 4:55 PM)29.83 "Hg (Jun 21, 4:55 PM)
Low79 °F (Jun 21, 5:30 PM)39% (Jul 2, 1:00 PM)29.53 "Hg (Jul 1, 2:30 PM)
Average88 °F65%29.71 "Hg
* Reported Jun 18 6:00 PM — Jul 3 6:30 PM, Taipei, Weather by CustomWeather, © 2015

Note: Actual official high and low records may vary slightly from our data, if they occured in-between our weather recording intervals... More about our weather records

Advertising

Taipei weather history for previous 24 hours

 ConditionsComfort  
Time TempWeatherWind HumidityBarometerVisibility
6:30 PM
Fri, Jul 3
88 °FScattered showers. Partly sunny.7 mph70%29.62 "HgN/A
6:00 PM90 °FScattered showers. Partly sunny.7 mph67%29.62 "HgN/A
5:30 PM88 °FScattered showers. Partly sunny.6 mph70%29.62 "HgN/A
5:00 PM88 °FPartly sunny.6 mph70%29.59 "HgN/A
4:30 PM90 °FPartly sunny.7 mph67%29.59 "HgN/A
4:00 PM90 °FBroken clouds.9 mph63%29.59 "HgN/A
3:30 PM90 °FBroken clouds.7 mph67%29.59 "HgN/A
3:00 PM90 °FScattered showers. Broken clouds.7 mph67%29.59 "HgN/A
2:30 PM90 °FScattered showers. Broken clouds.7 mph67%29.62 "HgN/A
2:00 PM90 °FScattered showers. Broken clouds.6 mph67%29.62 "HgN/A
1:30 PM90 °FBroken clouds.7 mph67%29.62 "HgN/A
1:00 PM90 °FBroken clouds.6 mph59%29.62 "HgN/A
12:30 PM91 °FBroken clouds.10 mph52%29.62 "HgN/A
11:30 AM91 °FBroken clouds.10 mph52%29.62 "HgN/A
10:30 AM93 °FBroken clouds.10 mph53%29.62 "HgN/A
10:00 AM91 °FBroken clouds.5 mph56%29.65 "HgN/A
9:30 AM91 °FBroken clouds.5 mph59%29.65 "HgN/A
9:00 AM91 °FBroken clouds.3 mph59%29.65 "HgN/A
8:30 AM90 °FBroken clouds.3 mph59%29.65 "HgN/A
8:00 AM90 °FPartly sunny.2 mph59%29.65 "HgN/A
7:30 AM88 °FPartly sunny.2 mph59%29.65 "HgN/A
7:00 AM88 °FBroken clouds.2 mph59%29.65 "HgN/A
6:30 AM86 °FPartly sunny.1 mph70%29.65 "HgN/A
6:00 AM82 °FPartly sunny.5 mph79%29.65 "HgN/A
5:00 AM82 °FPassing clouds.5 mph79%29.65 "HgN/A
4:00 AM81 °FPassing clouds.5 mph84%29.62 "HgN/A
3:00 AM82 °FPassing clouds.6 mph84%29.62 "HgN/A
2:00 AM82 °FPassing clouds.5 mph84%29.62 "HgN/A
1:00 AM82 °FPassing clouds.5 mph84%29.65 "HgN/A
12:00 AM84 °FPassing clouds.6 mph79%29.65 "HgN/A
11:30 PM
Thu, Jul 2
82 °FPassing clouds.6 mph84%29.65 "HgN/A
11:00 PM86 °FPassing clouds.6 mph75%29.68 "HgN/A
10:30 PM84 °FPassing clouds.7 mph79%29.68 "HgN/A
10:00 PM84 °FPassing clouds.8 mph79%29.68 "HgN/A
9:30 PM86 °FPassing clouds.7 mph75%29.65 "HgN/A
9:00 PM90 °FPassing clouds.5 mph52%29.65 "HgN/A
8:30 PM90 °FPassing clouds.7 mph49%29.65 "HgN/A
8:00 PM90 °FPassing clouds.8 mph52%29.65 "HgN/A
7:30 PM88 °FPassing clouds.1 mph70%29.62 "HgN/A
7:00 PM88 °FPassing clouds.6 mph70%29.62 "HgN/A
Weather by CustomWeather, © 2015

See weather overviewHow to use our weather pages